Regional Weather Roundup
Issued by NWS

Home | Current Version | Previous Version | Text Only | Print | Product List | Glossary Off
Versions: 1 2 3 4 5 6 7 8 9 10 11 12 13 14 15 16 17 18 19 20 21 22 23 24 25 26 27 28 29 30 31 32 33 34 35 36 37 38 39 40 41 42 43 44 45 46 47 48 49 50

000
ASUS45 KTFX 011504
RWRMT
MONTANA HOURLY WEATHER ROUNDUP
NATIONAL WEATHER SERVICE GREAT FALLS MT
804 AM MST SUN MAR 1 2015

NOTE: "FAIR" INDICATES FEW OR NO CLOUDS BELOW 12000 FEET WITH NO
SIGNIFICANT WEATHER AND/OR OBSTRUCTIONS TO VISIBILITY.

* THESE STATIONS ARE NOT UNDER NWS QUALITY CONTROL. THEY DO NOT
   REPORT WEATHER SUCH AS PRECIPITATION OR FOG.

MTZ001>007-043-011600-
WEST OF THE DIVIDE
CITY           SKY/WX    TMP DP  RH WIND       PRES   REMARKS
KALISPELL      SUNNY     14   7  73 N5        30.27R WCI   6
MISSOULA       SUNNY     16   7  67 SE8       30.31R WCI   5
BUTTE          SUNNY      0  -8  68 SE5       30.20S WCI -11
MULLAN PASS    SUNNY     12   0  58 S9        30.07S
* ANACONDA     SUNNY      5  -2  72 S8         N/A   WCI  -8
* ESSEX        N/A        3  -1  83 N/A        N/A
* LINCOLN      N/A       -6 -12  75 N/A        N/A
* LOOKOUT PASS N/A        7   1  76 SE3        N/A
* POLSON       N/A       14   9  80 N/A        N/A
* RONAN APT    SUNNY     14   7  73 N/A        N/A
* SEELEY LAKE  N/A       -6 -12  75 N/A        N/A
* THOMP F APT  SUNNY      8  -4  58 NW11G27    N/A   WCI  -7
$$

MTZ008-052>055-011600-
SOUTHWEST MONTANA
CITY           SKY/WX    TMP DP  RH WIND       PRES   REMARKS
BOZEMAN        PTCLDY     9   1  70 SE8       30.28R WCI  -3
DILLON         SUNNY      5  -2  72 CALM      30.22R
* W YELLOWSTON PTCLDY   -14 -21  70 N/A        N/A
* THREE FORKS  PTCLDY     3  -2  79 N/A        N/A
* BOULDER HILL N/A        2  -6  69 SW13       N/A   WCI -16
* MONIDA PASS  N/A        2  -3  79 SW4        N/A
* RAYNOLDS PAS N/A       -5 -20  47 SE3        N/A
* WHITEHALL    N/A        2  -5  72 NW2G10     N/A
* WISE RIVER   N/A       -1  -8  72 N/A        N/A
$$

MTZ009>010-012-014-046-048-049-054-011600-
EAST SLOPES AND CENTRAL MONTANA
CITY           SKY/WX    TMP DP  RH WIND       PRES   REMARKS
CUT BANK       SUNNY     10   7  88 CALM      30.17F
GREAT FALLS    SUNNY     16   9  74 S12       30.22F WCI   3
HELENA         SUNNY     10   3  73 CALM      30.30R
* DEARBORN     N/A        5   2  87 SW2        N/A
* EAST GLACIER N/A       12   0  58 NW11G17    N/A   WCI  -2
* MONARCH      N/A        5   0  80 S11        N/A   WCI -10
* PENDROY      N/A       14   7  73 SW9        N/A   WCI   2
* ROGERS PASS  N/A        9   1  70 E3G8       N/A
* SWEET GRASS  N/A       13   8  80 S12        N/A   WCI  -1
$$

MTZ011-013-016-021-035-040-045-047-050-051-011600-
NORTH CENTRAL MONTANA
CITY           SKY/WX    TMP DP  RH WIND       PRES   REMARKS
HAVRE          SUNNY     14  10  84 SW10      30.28S WCI   1
LEWISTOWN      SUNNY     12   7  80 SW10      30.23R WCI  -1
* CHESTER      N/A        9   5  84 N/A        N/A
* DENTON       N/A       13   7  77 NW2        N/A
* GEYSER       N/A       15   5  64 SW12       N/A   WCI   1
* JUDITH GAP   N/A       11   7  84 NE4        N/A
* LOMA         N/A       13   8  80 W4         N/A
$$

MTZ017>020-022>027-061-062-011600-
NORTHEAST MONTANA
CITY           SKY/WX    TMP DP  RH WIND       PRES   REMARKS
GLASGOW        CLOUDY    16  10  77 W9        30.27R WCI   5
GLENDIVE       SUNNY     18  14  84 W15       30.24R WCI   4
JORDAN         SUNNY     19  14  81 NW12      30.27R WCI   6
SIDNEY         SUNNY     18  12  77 W9        30.27R WCI   7
WOLF POINT     PTSUNNY   16  10  77 W6        30.28R WCI   7
* BEAVER HILL  N/A       16  13  88 SW10       N/A   WCI   4
* CIRCLE       N/A       16  14  92 NW10       N/A   WCI   4
* LINDSAY DVD  N/A       15  13  92 W16G21     N/A   WCI  -1
* NAVAJO       N/A       12  10  92 NW11G16    N/A   WCI  -2
* SACO         N/A       12   8  84 S3         N/A
$$

MTZ028>042-056>058-011600-
SOUTHCENTRAL AND SOUTHEAST MONTANA
CITY           SKY/WX    TMP DP  RH WIND       PRES   REMARKS
BAKER          SNOW      18  12  77 W15       30.22R VSB 1/2  WCI   4
BILLINGS       SUNNY     14   3  61 SW14      30.28R WCI  -1
LIVINGSTON     SUNNY     12   1  61 NW12      30.24R WCI  -2
MILES CITY     SUNNY     18  12  77 NW14      30.28R WCI   4
* LAUREL APT   SUNNY     10   1  67 N/A        N/A
* ROUNDUP APT  SUNNY     12   1  61 N/A        N/A
* ALZADA       N/A       13   9  84 SW8        N/A   WCI   2
* HYSHAM       N/A       15   8  74 W11        N/A   WCI   2
* LAME DEER    N/A       10   6  84 W7G12      N/A   WCI  -1
* REED POINT   N/A       13   5  70 E2         N/A
* ROSCOE HILL  N/A        9  -8  45 SE6        N/A   WCI  -1
$$

REGIONAL REPORTS...DAKOTAS
CITY           SKY/WX    TMP DP  RH WIND       PRES   REMARKS
WILLISTON      CLOUDY    10   7  88 W6        30.23R
DICKINSON      PTCLDY    18  12  77 W15       30.16R WCI   4
CROSBY         LGT SNOW   9   7  91 NW13      30.22R WCI  -7
WATFORD CITY   LGT SNOW  16  12  84 NW9       30.20R VSB 3    WCI   5
BISMARCK       CLOUDY    14   9  80 CALM      30.21R
GRAND FORKS    PTSUNNY    9   0  66 W6        30.16R WCI  -1
FARGO          CLOUDY     9   1  70 SW9       30.21R WCI  -4
BUFFALO SD     PTCLDY    16  10  77 W14       30.14R WCI   2
RAPID CITY     SUNNY     14   9  80 N3        30.24R
$$

REGIONAL REPORTS...WYOMING/IDAHO/WASHINGTON
CITY           SKY/WX    TMP DP  RH WIND       PRES   REMARKS
GILLETTE       SUNNY     12   7  80 W9        30.22R
SHERIDAN       PTCLDY     9   1  70 S5        30.26R
CODY           PTCLDY     9   7  91 S5        30.22R
YELLOWSTONE LA PTCLDY   -15 -20  77 N3        30.12R
SALMON         PTCLDY    16  10  77 CALM      30.26R
MULLAN PASS    SUNNY     12   0  58 S9        30.07S
SAND POINT     SUNNY     18  12  77 CALM      30.26S
SPOKANE        PTSUNNY   21  10  62 CALM      30.22R

$$



USA.gov is the U.S. government's official web portal to all federal, state and local government web resources and services.